Weather History for PHNL - December, 2013

Change the Weather History Date:

Thursday, December 12, 2013

  Actual Average Record
Temperature  
Mean Temperature 78 °F 75 °F  
Max Temperature 85 °F 81 °F 89 °F (1995)
Min Temperature 70 °F 69 °F 57 °F (1972)
Degree Days  
Heating Degree Days 0 0  
Month to date heating degree days 0 0  
Since 1 July heating degree days 0 0  
Cooling Degree Days 13 10  
Month to date cooling degree days 138 127  
Year to date cooling degree days 4275 4453  
Growing Degree Days 27 (Base 50)    
Moisture  
Dew Point 65 °F    
Average Humidity 65    
Maximum Humidity 82    
Minimum Humidity 47    
Precipitation  
Precipitation T in 0.11 in 7.89 in (1987)
Month to date precipitation 1.47 1.08  
Year to date precipitation 14.01 14.94  
Snow  
Snow 0.00 in - - ()
Month to date snowfall 0.0  
Since 1 July snowfall 0.0  
Snow Depth 0.00 in    
Sea Level Pressure  
Sea Level Pressure 30.02 in    
Wind  
Wind Speed 4 mph (NE)    
Max Wind Speed 13 mph    
Max Gust Speed 18 mph    
Visibility 10 miles    
Events      
T = Trace of Precipitation, MM = Missing Value Source: NWS Daily Summary

Daily Weather History Graph

Daily Weather History Graph

Search for Another Location

Airport or City:

Trip Planner

Search our weather history database for the weather conditions in past years. The results will help you decide how hot, cold, wet, or windy it might be!

Date:

Astronomy

Dec. 12, 2013 Rise Set
Actual Time 7:00 AM HST 5:51 PM HST
Civil Twilight 6:35 AM HST 6:15 PM HST
Nautical Twilight 6:08 AM HST 6:43 PM HST
Astronomical Twilight 5:40 AM HST 7:10 PM HST
Moon 2:44 PM HST (12/12) 2:58 AM HST (12/12)
Length of Visible Light 11h 39m
Length of Day
10h 51m
Waxing Gibbous, 82% of the Moon is Illuminated
Dec 12
Waxing Gibbous
Dec 16
Full
Dec 25
Last Quarter
Jan 1
New
Jan 7
First Quarter

Hourly Weather History & Observations

Time (HST) Temp. Heat Index Dew Point Humidity Pressure Visibility Wind Dir Wind Speed Gust Speed Precip Events Conditions
12:53 AM 75.9 °F - 63.0 °F 64% 30.04 in 10.0 mi ENE 6.9 mph - N/A   Scattered Clouds
1:53 AM 75.0 °F - 63.0 °F 66% 30.02 in 10.0 mi ENE 4.6 mph - N/A   Scattered Clouds
2:53 AM 73.9 °F - 63.0 °F 68% 30.00 in 10.0 mi Calm Calm - N/A   Scattered Clouds
3:53 AM 73.0 °F - 64.0 °F 73% 30.01 in 10.0 mi NNE 5.8 mph - N/A   Partly Cloudy
4:53 AM 70.0 °F - 63.0 °F 78% 30.01 in 10.0 mi Calm Calm - N/A   Partly Cloudy
5:53 AM 71.1 °F - 63.0 °F 75% 30.01 in 10.0 mi Calm Calm - N/A   Scattered Clouds
6:53 AM 73.0 °F - 64.9 °F 76% 30.02 in 10.0 mi North 3.5 mph - N/A   Scattered Clouds
7:53 AM 73.9 °F - 66.0 °F 76% 30.04 in 10.0 mi NW 4.6 mph - N/A   Mostly Cloudy
8:53 AM 78.1 °F - 66.0 °F 66% 30.06 in 10.0 mi Calm Calm - N/A   Scattered Clouds
9:53 AM 80.1 °F 81.9 °F 64.9 °F 60% 30.06 in 10.0 mi ESE 3.5 mph - N/A   Scattered Clouds
10:53 AM 82.0 °F 82.7 °F 61.0 °F 49% 30.05 in 10.0 mi Variable 3.5 mph - N/A   Mostly Cloudy
11:53 AM 82.0 °F 82.4 °F 60.1 °F 47% 30.01 in 10.0 mi South 8.1 mph - N/A   Mostly Cloudy
12:53 PM 82.9 °F 83.7 °F 62.1 °F 49% 29.98 in 10.0 mi SSE 4.6 mph - N/A   Mostly Cloudy
1:53 PM 84.0 °F 85.4 °F 64.0 °F 51% 29.96 in 10.0 mi NNE 12.7 mph - N/A   Mostly Cloudy
2:53 PM 82.9 °F 84.4 °F 64.0 °F 53% 29.95 in 10.0 mi NE 12.7 mph 18.4 mph N/A   Mostly Cloudy
3:53 PM 81.0 °F 82.5 °F 64.0 °F 56% 29.97 in 10.0 mi SW 8.1 mph 17.3 mph N/A   Scattered Clouds
4:53 PM 79.0 °F - 66.0 °F 64% 30.00 in 10.0 mi ENE 6.9 mph - N/A   Mostly Cloudy
5:53 PM 78.1 °F - 66.9 °F 68% 30.02 in 10.0 mi East 5.8 mph - N/A   Mostly Cloudy
6:53 PM 75.9 °F - 68.0 °F 76% 30.04 in 10.0 mi Calm Calm - N/A   Mostly Cloudy
7:53 PM 75.0 °F - 69.1 °F 82% 30.06 in 10.0 mi North 3.5 mph - 0.00 in   Mostly Cloudy
8:53 PM 75.0 °F - 69.1 °F 82% 30.07 in 10.0 mi North 3.5 mph - N/A   Mostly Cloudy
9:53 PM 75.0 °F - 66.9 °F 76% 30.08 in 10.0 mi Calm Calm - N/A   Mostly Cloudy
10:53 PM 75.0 °F - 66.0 °F 73% 30.07 in 10.0 mi North 3.5 mph - N/A   Scattered Clouds
11:53 PM 73.9 °F - 64.9 °F 73% 30.06 in 10.0 mi Calm Calm - N/A   Scattered Clouds